Weather History for Fort Collins, CO

Change the Weather History Date:

Monday, January 27, 2014

  Actual Average Record
Temperature  
Mean Temperature 12 °F -  
Max Temperature 17 °F 41 °F 64 °F (2003)
Min Temperature 6 °F 18 °F -5 °F (2009)
Degree Days  
Heating Degree Days 54    
Moisture  
Dew Point 10 °F    
Average Humidity 84    
Maximum Humidity 92    
Minimum Humidity 79    
Precipitation  
Precipitation 0.00 in - - ()
Sea Level Pressure  
Sea Level Pressure 30.13 in    
Wind  
Wind Speed 7 mph (East)    
Max Wind Speed 13 mph    
Max Gust Speed -    
Visibility 5 miles    
Events      
Averages and records for this station are not official NWS values.
T = Trace of Precipitation, MM = Missing Value Source: NWS Daily Summary

Daily Weather History Graph

Daily Weather History Graph

Search for Another Location

Airport:

Trip Planner

Search our weather history database for the weather conditions in past years. The results will help you decide how hot, cold, wet, or windy it might be!

Date:

Astronomy

Jan. 27, 2014 Rise Set
Actual Time 7:13 AM MST 5:12 PM MST
Civil Twilight 6:44 AM MST 5:41 PM MST
Nautical Twilight 6:11 AM MST 6:14 PM MST
Astronomical Twilight 5:39 AM MST 6:46 PM MST
Moon 3:57 AM MST (1/27) 2:00 PM MST (1/27)
Length of Visible Light 10h 56m
Length of Day
9h 58m
Waning Crescent, 14% of the Moon is Illuminated
Jan 27
Waning Crescent
Jan 30
New
Feb 6
First Quarter
Feb 14
Full
Feb 22
Last Quarter

Hourly Weather History & Observations

Time (MST) Temp. Windchill Dew Point Humidity Pressure Visibility Wind Dir Wind Speed Gust Speed Precip Events Conditions
12:15 AM 17.6 °F 7.3 °F 12.2 °F 79% 30.17 in 10.0 mi ENE 8.1 mph - N/A   Clear
12:35 AM 17.6 °F 7.3 °F 12.2 °F 79% 30.16 in 10.0 mi ENE 8.1 mph - N/A   Mostly Cloudy
12:55 AM 17.6 °F 8.2 °F 12.2 °F 79% 30.17 in 10.0 mi ENE 6.9 mph - N/A   Overcast
1:15 AM 17.6 °F 6.4 °F 12.2 °F 79% 30.17 in 10.0 mi East 9.2 mph - N/A   Overcast
1:35 AM 17.6 °F 7.3 °F 12.2 °F 79% 30.16 in 10.0 mi East 8.1 mph - N/A   Overcast
1:55 AM 15.8 °F 4.2 °F 12.2 °F 86% 30.15 in 10.0 mi East 9.2 mph - N/A   Overcast
2:15 AM 15.8 °F 3.4 °F 12.2 °F 86% 30.16 in 10.0 mi ESE 10.4 mph - N/A   Overcast
2:35 AM 15.8 °F 4.2 °F 10.4 °F 79% 30.15 in 10.0 mi East 9.2 mph - N/A   Overcast
2:55 AM 15.8 °F 5.1 °F 10.4 °F 79% 30.15 in 10.0 mi ESE 8.1 mph - N/A   Overcast
3:15 AM 15.8 °F 5.1 °F 12.2 °F 86% 30.14 in 10.0 mi ESE 8.1 mph - N/A   Overcast
3:35 AM 15.8 °F 5.1 °F 10.4 °F 79% 30.14 in 8.0 mi SSE 8.1 mph - N/A   Overcast
3:55 AM 15.8 °F 6.1 °F 10.4 °F 79% 30.13 in 5.0 mi SSE 6.9 mph - N/A   Overcast
4:15 AM 15.8 °F 6.1 °F 12.2 °F 86% 30.13 in 9.0 mi SE 6.9 mph - N/A   Mostly Cloudy
4:35 AM 15.8 °F 6.1 °F 10.4 °F 79% 30.12 in 10.0 mi SE 6.9 mph - N/A   Mostly Cloudy
4:55 AM 15.8 °F 7.2 °F 10.4 °F 79% 30.12 in 10.0 mi SE 5.8 mph - N/A   Scattered Clouds
5:15 AM 15.8 °F 6.1 °F 12.2 °F 86% 30.11 in 10.0 mi SSE 6.9 mph - N/A   Partly Cloudy
5:35 AM 15.8 °F 7.2 °F 12.2 °F 86% 30.11 in 10.0 mi SSE 5.8 mph - N/A   Scattered Clouds
5:55 AM 15.8 °F 10.2 °F 10.4 °F 79% 30.11 in 6.0 mi SE 3.5 mph - N/A   Overcast
6:15 AM 15.8 °F 8.6 °F 12.2 °F 86% 30.11 in 2.0 mi SE 4.6 mph - N/A   Overcast
6:35 AM 15.8 °F 7.2 °F 10.4 °F 79% 30.10 in 2.5 mi SE 5.8 mph - N/A   Overcast
6:55 AM 15.8 °F 8.6 °F 10.4 °F 79% 30.10 in 2.0 mi ESE 4.6 mph - N/A   Overcast
7:15 AM 15.8 °F - 10.4 °F 79% 30.10 in 1.5 mi Calm Calm - N/A   Overcast
7:35 AM 15.8 °F 10.2 °F 10.4 °F 79% 30.11 in 1.0 mi SE 3.5 mph - N/A   Overcast
7:55 AM 15.8 °F - 10.4 °F 79% 30.11 in 0.5 mi Calm Calm - N/A   Overcast
8:15 AM 15.8 °F 8.6 °F 12.2 °F 86% 30.11 in 0.8 mi ESE 4.6 mph - N/A   Overcast
8:35 AM 15.8 °F - 12.2 °F 86% 30.12 in 0.8 mi Calm Calm - N/A   Overcast
8:55 AM 15.8 °F - 12.2 °F 86% 30.12 in 0.5 mi Calm Calm - N/A   Mostly Cloudy
9:15 AM 15.8 °F 8.6 °F 12.2 °F 86% 30.13 in 0.5 mi East 4.6 mph - N/A   Unknown
9:35 AM 15.8 °F 6.1 °F 12.2 °F 86% 30.13 in 0.5 mi ESE 6.9 mph - N/A   Unknown
9:55 AM 17.6 °F 6.4 °F 12.2 °F 79% 30.13 in 0.5 mi ESE 9.2 mph - N/A   Unknown
10:15 AM 15.8 °F 4.2 °F 12.2 °F 86% 30.13 in 0.8 mi SE 9.2 mph - N/A   Unknown
10:35 AM 15.8 °F 4.2 °F 12.2 °F 86% 30.13 in 0.8 mi ESE 9.2 mph - N/A   Mostly Cloudy
10:55 AM 15.8 °F 3.4 °F 12.2 °F 86% 30.13 in 0.8 mi ESE 10.4 mph - N/A   Unknown
11:15 AM 15.8 °F 2.1 °F 12.2 °F 86% 30.12 in 1.0 mi ESE 12.7 mph - N/A   Clear
11:35 AM 15.8 °F 3.4 °F 12.2 °F 86% 30.12 in 1.0 mi ESE 10.4 mph - N/A   Mostly Cloudy
11:55 AM 15.8 °F 2.7 °F 12.2 °F 86% 30.11 in 1.0 mi ESE 11.5 mph - N/A   Clear
12:15 PM 15.8 °F 3.4 °F 12.2 °F 86% 30.10 in 1.2 mi ESE 10.4 mph - N/A   Clear
12:35 PM 17.6 °F 6.4 °F 12.2 °F 79% 30.09 in 1.2 mi ESE 9.2 mph - N/A   Clear
12:55 PM 15.8 °F 2.7 °F 12.2 °F 86% 30.08 in 1.2 mi ESE 11.5 mph - N/A   Mostly Cloudy
1:15 PM 15.8 °F 4.2 °F 10.4 °F 79% 30.08 in 0.8 mi ESE 9.2 mph - N/A   Overcast
1:35 PM 15.8 °F 3.4 °F 12.2 °F 86% 30.07 in 0.5 mi ESE 10.4 mph - N/A   Overcast
1:55 PM 15.8 °F 5.1 °F 12.2 °F 86% 30.07 in 0.8 mi ESE 8.1 mph - N/A   Overcast
2:15 PM 15.8 °F 5.1 °F 12.2 °F 86% 30.07 in 0.5 mi East 8.1 mph - N/A   Overcast
2:35 PM 15.8 °F 7.2 °F 12.2 °F 86% 30.07 in 1.0 mi East 5.8 mph - N/A   Overcast
2:55 PM 17.6 °F 10.7 °F 12.2 °F 79% 30.08 in 1.0 mi ENE 4.6 mph - N/A   Overcast
3:15 PM 17.6 °F 9.3 °F 12.2 °F 79% 30.09 in 0.8 mi ENE 5.8 mph - N/A   Overcast
3:35 PM 15.8 °F 6.1 °F 12.2 °F 86% 30.09 in 1.0 mi ENE 6.9 mph - N/A   Mostly Cloudy
3:55 PM 15.8 °F 5.1 °F 10.4 °F 79% 30.09 in 3.0 mi ENE 8.1 mph - N/A   Clear
4:15 PM 15.8 °F 6.1 °F 10.4 °F 79% 30.10 in 2.5 mi ENE 6.9 mph - N/A   Clear
4:35 PM 15.8 °F 7.2 °F 10.4 °F 79% 30.10 in 2.5 mi NE 5.8 mph - N/A   Clear
4:55 PM 15.8 °F 7.2 °F 10.4 °F 79% 30.10 in 2.0 mi ENE 5.8 mph - N/A   Clear
5:15 PM 15.8 °F 6.1 °F 10.4 °F 79% 30.11 in 1.8 mi ENE 6.9 mph - N/A   Clear
5:35 PM 15.8 °F 5.1 °F 10.4 °F 79% 30.11 in 2.5 mi NE 8.1 mph - N/A   Clear
5:55 PM 14.0 °F 3.9 °F 10.4 °F 86% 30.12 in 8.0 mi NE 6.9 mph - N/A   Clear
6:15 PM 14.0 °F 6.5 °F 10.4 °F 86% 30.13 in 5.0 mi ENE 4.6 mph - N/A   Clear
6:35 PM 14.0 °F 8.2 °F 10.4 °F 86% 30.14 in 4.0 mi ENE 3.5 mph - N/A   Clear
6:55 PM 14.0 °F 8.2 °F 10.4 °F 86% 30.14 in 5.0 mi NE 3.5 mph - N/A   Clear
7:15 PM 12.2 °F - 8.6 °F 85% 30.14 in 10.0 mi Calm Calm - N/A   Clear
7:35 PM 10.4 °F - 6.8 °F 85% 30.14 in 7.0 mi Calm Calm - N/A   Clear
7:55 PM 10.4 °F - 6.8 °F 85% 30.14 in 10.0 mi Calm Calm - N/A   Mostly Cloudy
8:15 PM 8.6 °F 2.0 °F 6.8 °F 92% 30.15 in 10.0 mi NE 3.5 mph - N/A   Partly Cloudy
8:35 PM 8.6 °F - 5.0 °F 85% 30.15 in 9.0 mi Calm Calm - N/A   Clear
8:55 PM 8.6 °F 2.0 °F 5.0 °F 85% 30.16 in 9.0 mi NNE 3.5 mph - N/A   Clear
9:15 PM 6.8 °F -3.5 °F 3.2 °F 85% 30.16 in 8.0 mi NNE 5.8 mph - N/A   Partly Cloudy
9:35 PM 8.6 °F -1.3 °F 6.8 °F 92% 30.17 in 10.0 mi NNE 5.8 mph - N/A   Mostly Cloudy
9:55 PM 8.6 °F -2.6 °F 6.8 °F 92% 30.18 in 3.0 mi NE 6.9 mph - N/A   Overcast
10:15 PM 10.4 °F -0.4 °F 6.8 °F 85% 30.18 in 10.0 mi NE 6.9 mph - N/A   Overcast
10:35 PM 8.6 °F 0.1 °F 6.8 °F 92% 30.18 in 10.0 mi NE 4.6 mph - N/A   Overcast
10:55 PM 8.6 °F - 6.8 °F 92% 30.19 in 10.0 mi Calm Calm - N/A   Overcast
11:15 PM 8.6 °F - 6.8 °F 92% 30.20 in 10.0 mi Calm Calm - N/A   Overcast
11:35 PM 8.6 °F - 5.0 °F 85% 30.19 in 10.0 mi Calm Calm - N/A   Overcast
11:55 PM 8.6 °F - 6.8 °F 92% 30.18 in 10.0 mi Calm Calm - N/A   Overcast